GFSNE_700_temp_138.txt.gz
Temp
2 2 2 3 3 4 4 4 4 4 4 4 4 4 4 4 4 3 4 3 3 3 4 4 4 3 3 3 3 3 2 1 1 0 1 0 0 1
1 2 2 3 3 3 4 4 4 3 4 4 4 4 4 4 4 3 3 3 3 3 3 3 3 3 3 2 2 2 2 1 1 1 1 0 0 0
-0 0 1 1 2 3 3 3 3 3 3 4 4 4 4 3 3 4 3 3 3 3 2 2 2 2 2 2 2 1 1 2 1 1 1 1 1 1
3 2 2 2 1 1 1 2 2 3 3 3 4 4 3 3 3 3 2 2 3 2 2 2 1 1 2 1 2 2 2 2 1 1 1 1 1 2
2 2 0 1 2 1 1 1 3 3 3 3 3 4 3 2 3 2 2 3 2 1 1 1 1 0 1 1 1 1 1 2 2 1 1 1 1 1
2 2 3 2 1 1 1 1 2 2 2 2 2 2 2 2 2 2 2 2 2 2 1 1 1 1 1 1 1 1 1 1 1 1 1 1 1 1
1 0 1 0 1 -0 0 1 0 1 2 1 1 1 1 0 1 2 2 1 2 1 1 1 1 1 1 1 1 1 1 1 1 1 1 0 1 1
-0 -0 1 1 0 -0 -0 1 -0 0 1 0 1 1 0 0 -0 1 2 1 1 1 1 1 1 1 1 1 1 2 1 1 1 0 1 1 1 1
-2 -2 -1 -2 -2 -1 -1 -0 -1 -1 -0 -1 -0 0 -0 -1 -0 0 0 0 -0 0 1 2 2 1 1 1 1 2 2 1 1 0 1 1 1 1
-2 -2 -2 -2 -3 -3 -3 -2 -2 -2 -2 -2 -2 -1 -1 -1 -1 -0 -1 -0 0 -0 0 1 1 1 1 1 1 1 1 0 0 0 0 1 1 1
-3 -2 -2 -2 -3 -3 -3 -3 -2 -2 -2 -2 -2 -2 -1 -2 -2 -1 -1 -1 -0 -0 0 1 1 1 -0 -1 0 -0 0 -0 -0 -0 -0 -0 0 0
-3 -4 -3 -3 -3 -3 -3 -3 -3 -3 -3 -3 -2 -2 -2 -2 -2 -2 -2 -1 -1 -1 -1 -1 -1 -1 -1 -1 -1 -1 -1 -0 -0 -1 -1 -0 -1 -1
-4 -4 -4 -4 -3 -3 -3 -3 -3 -3 -3 -3 -3 -3 -2 -2 -2 -2 -2 -2 -2 -2 -1 -1 -1 -1 -1 -1 -1 -2 -2 -2 -2 -2 -1 -0 -1 -1
-4 -4 -4 -4 -4 -4 -4 -4 -4 -4 -4 -4 -4 -4 -4 -4 -4 -3 -3 -3 -3 -2 -2 -2 -2 -2 -1 -1 -1 -2 -2 -1 -1 -1 -0 -0 -0 -1
-5 -5 -5 -5 -5 -5 -5 -5 -5 -5 -5 -5 -5 -5 -5 -5 -5 -5 -4 -4 -4 -4 -3 -3 -3 -3 -2 -2 -2 -1 -1 -2 -2 -2 -1 -1 -1 -1
-7 -7 -6 -5 -5 -5 -5 -5 -6 -5 -6 -6 -6 -6 -6 -7 -6 -6 -6 -6 -5 -5 -5 -5 -4 -4 -4 -3 -3 -3 -3 -3 -3 -2 -2 -3 -3 -3
-8 -8 -9 -9 -9 -9 -8 -8 -8 -8 -8 -9 -9 -9 -8 -8 -8 -8 -8 -8 -8 -7 -8 -8 -6 -6 -6 -5 -5 -5 -5 -5 -5 -4 -4 -4 -4 -4
-9 -9 -9 -9 -9 -10 -10 -10 -10 -11 -11 -11 -11 -11 -11 -11 -11 -11 -11 -11 -10 -10 -10 -10 -10 -10 -9 -8 -7 -7 -7 -7 -7 -6 -6 -6 -5 -5
-12 -12 -12 -12 -12 -12 -12 -12 -13 -13 -13 -14 -14 -14 -14 -14 -14 -14 -14 -14 -14 -13 -13 -12 -12 -11 -11 -11 -11 -10 -10 -9 -9 -8 -8 -7 -7 -6
-14 -14 -15 -15 -15 -15 -15 -15 -15 -16 -16 -16 -16 -16 -16 -16 -16 -17 -17 -16 -16 -16 -16 -16 -15 -14 -14 -13 -13 -13 -12 -12 -11 -10 -10 -9 -9 -9
-17 -17 -17 -17 -17 -17 -17 -17 -17 -17 -17 -17 -17 -17 -18 -18 -18 -18 -18 -18 -18 -17 -17 -17 -17 -17 -16 -15 -15 -14 -14 -13 -13 -12 -11 -11 -11 -10
-20 -20 -20 -20 -20 -20 -20 -20 -19 -19 -19 -19 -19 -19 -19 -19 -19 -20 -19 -19 -19 -19 -19 -19 -18 -18 -17 -17 -16 -16 -16 -15 -14 -14 -14 -13 -13 -13
-21 -22 -22 -22 -23 -23 -23 -23 -22 -22 -22 -21 -21 -21 -21 -21 -21 -21 -21 -20 -20 -20 -20 -20 -19 -19 -18 -18 -18 -18 -18 -17 -16 -16 -16 -16 -16 -16

GFSNE_700_temp_141.txt.gz
Temp
1 1 1 1 2 2 3 3 3 3 4 4 5 5 5 4 4 4 4 4 3 3 3 3 3 4 4 4 4 4 4 4 3 3 2 1 1 1
1 1 2 0 1 1 2 2 2 3 3 3 4 4 4 4 4 4 4 4 4 3 3 3 3 3 3 3 3 3 3 3 3 3 2 2 1 1
1 0 1 1 1 1 2 1 2 2 3 3 3 3 4 4 4 3 3 3 4 4 3 3 3 3 3 2 2 2 2 2 2 2 2 2 2 2
1 0 1 2 1 1 0 0 1 2 2 3 3 3 3 3 3 3 3 3 3 3 3 2 3 2 2 2 2 2 2 2 2 2 2 2 2 2
-0 -0 0 1 1 1 2 1 0 1 2 2 2 3 3 3 3 3 3 2 2 2 2 2 2 2 1 1 1 1 1 1 2 2 2 2 1 1
-1 -1 -1 -0 -0 0 0 1 -0 0 0 1 1 1 2 2 3 3 2 2 2 2 2 1 2 1 1 2 1 1 1 1 1 1 1 2 1 1
-2 -2 -1 -1 -0 0 0 0 -0 -0 -0 0 0 -0 0 2 2 2 2 1 2 1 2 2 1 1 1 1 1 1 1 1 1 1 1 1 1 1
-3 -1 -0 -0 -0 0 1 0 -0 0 0 -0 0 0 -1 1 1 0 1 1 1 1 1 1 1 1 1 1 1 1 1 1 1 1 2 1 1 1
-4 -4 -1 -2 -2 -1 -1 -1 -0 -0 0 0 -0 -0 -0 0 -0 -0 1 -0 0 -0 0 1 1 1 1 1 1 1 1 1 1 1 1 1 1 1
-5 -5 -5 -4 -3 -3 -3 -3 -3 -2 -2 -2 -1 -1 -1 -1 -1 -1 -0 0 0 -0 -0 -0 0 -0 -0 0 0 1 0 0 0 0 1 1 1 1
-4 -4 -4 -4 -4 -4 -3 -3 -3 -2 -2 -2 -3 -4 -4 -4 -3 -3 -2 -2 -1 -1 -1 -1 -1 -0 -0 -0 0 0 1 1 0 -0 0 0 1 1
-4 -5 -5 -5 -5 -5 -4 -4 -4 -3 -3 -3 -3 -3 -3 -3 -2 -2 -1 -2 -2 -2 -2 -2 -1 -2 -2 -1 -0 0 0 0 -0 -0 0 0 -0 -0
-4 -5 -5 -5 -5 -5 -5 -4 -4 -4 -4 -4 -3 -3 -3 -3 -3 -3 -3 -2 -2 -2 -2 -2 -1 -1 -1 -1 -1 -1 -1 -1 -1 -1 -1 -0 -0 -0
-5 -5 -5 -5 -5 -5 -5 -5 -4 -4 -4 -4 -4 -4 -4 -4 -4 -3 -3 -3 -3 -3 -3 -2 -2 -2 -1 -1 -1 -1 -1 -1 -1 -1 -1 -1 -1 -1
-5 -5 -5 -6 -6 -6 -6 -6 -6 -5 -5 -5 -5 -5 -5 -5 -5 -5 -5 -4 -4 -4 -3 -3 -3 -3 -2 -2 -2 -2 -2 -2 -2 -2 -1 -1 -1 -1
-7 -7 -7 -7 -7 -8 -7 -7 -7 -7 -7 -6 -6 -6 -6 -6 -6 -6 -6 -6 -6 -5 -5 -5 -5 -5 -4 -4 -3 -3 -3 -3 -3 -3 -3 -2 -2 -2
-9 -10 -10 -11 -11 -10 -10 -10 -10 -9 -8 -8 -8 -8 -9 -8 -8 -8 -8 -7 -7 -7 -7 -7 -6 -6 -6 -6 -6 -5 -5 -5 -5 -5 -4 -4 -4 -3
-10 -10 -11 -11 -11 -11 -11 -11 -11 -11 -12 -12 -11 -11 -11 -11 -11 -12 -11 -11 -11 -10 -10 -10 -9 -10 -9 -9 -8 -7 -7 -7 -7 -7 -7 -6 -6 -5
-12 -12 -12 -12 -12 -13 -13 -13 -13 -13 -13 -13 -13 -13 -13 -13 -13 -14 -14 -14 -14 -14 -14 -13 -13 -12 -12 -12 -11 -11 -11 -11 -10 -10 -10 -10 -9 -8
-15 -15 -15 -15 -15 -15 -15 -15 -15 -15 -15 -15 -15 -15 -16 -16 -16 -16 -17 -16 -16 -16 -16 -16 -15 -15 -14 -14 -13 -14 -13 -13 -13 -13 -12 -12 -11 -11
-17 -17 -18 -18 -18 -18 -18 -18 -17 -17 -17 -17 -18 -18 -18 -18 -18 -18 -19 -19 -18 -18 -18 -18 -17 -17 -17 -17 -16 -16 -15 -15 -15 -14 -14 -14 -13 -12
-18 -19 -19 -19 -19 -19 -19 -19 -19 -19 -19 -19 -19 -19 -19 -19 -20 -20 -20 -20 -20 -20 -19 -19 -19 -19 -18 -18 -18 -18 -17 -17 -17 -16 -16 -16 -15 -15
-20 -20 -21 -21 -21 -21 -21 -21 -21 -21 -21 -21 -21 -21 -21 -21 -22 -22 -22 -22 -22 -21 -21 -20 -20 -20 -20 -19 -19 -19 -19 -18 -18 -18 -17 -17 -17 -17

GFSNE_700_temp_147.txt.gz
Temp
-2 -2 -0 1 1 1 0 1 1 2 3 3 2 3 4 4 4 4 4 4 4 4 5 4 4 5 4 4 4 4 4 4 4 4 4 3 3 3
-2 -2 -1 -0 -1 -1 0 1 1 2 3 2 1 2 4 4 4 4 4 4 4 4 4 4 4 4 4 4 4 4 4 4 4 4 3 3 3 3
-4 -3 -2 -1 -1 -1 -0 1 1 1 1 1 2 2 3 4 3 3 3 3 3 3 4 4 4 4 4 4 4 3 3 3 3 3 3 3 3 3
-3 -2 -2 -2 -1 -1 0 1 1 1 1 1 1 2 3 2 2 3 3 3 3 3 3 3 3 4 3 3 3 3 3 3 3 3 3 2 2 2
-3 -2 -3 -2 -2 -1 -0 0 1 1 1 1 1 0 0 0 2 3 2 2 2 3 2 2 3 3 3 3 3 3 3 3 3 2 2 2 2 2
-3 -3 -2 -2 -1 -1 -1 -0 -1 -1 -1 1 1 0 0 1 1 3 2 2 2 2 3 3 2 2 2 2 2 2 3 3 3 3 2 2 1 1
-4 -3 -3 -2 -2 -2 -1 -1 -1 -1 -1 -1 0 1 2 0 1 1 1 2 2 2 2 2 2 2 2 2 2 2 2 2 2 2 2 2 2 2
-5 -4 -4 -3 -2 -2 -1 -1 -0 -1 -1 -1 -1 1 -0 0 0 -0 0 1 2 1 1 2 1 1 1 1 2 2 2 1 2 2 2 2 2 1
-6 -6 -6 -5 -5 -4 -4 -4 -2 -2 -2 -1 -1 -0 -1 0 -1 -0 -1 -0 -0 0 0 0 1 1 2 1 1 1 1 1 2 1 1 1 1 1
-5 -5 -5 -6 -6 -6 -5 -5 -5 -4 -3 -2 -1 -1 -1 -1 -1 -1 -1 -1 -0 -0 -0 -0 -0 0 1 1 0 1 1 1 1 1 1 1 1 1
-6 -6 -5 -5 -5 -5 -5 -5 -6 -6 -5 -5 -4 -3 -3 -4 -3 -2 -2 -2 -1 -1 -1 -1 -1 -1 -1 -1 -0 -0 1 1 0 1 1 0 1 0
-6 -6 -6 -5 -5 -5 -5 -5 -5 -4 -4 -4 -4 -4 -5 -5 -5 -4 -4 -3 -3 -3 -3 -3 -3 -3 -2 -2 -1 -1 -0 -1 0 0 0 -0 0 -0
-7 -7 -6 -6 -6 -6 -6 -5 -5 -5 -5 -4 -4 -4 -4 -4 -3 -3 -3 -3 -3 -2 -2 -3 -4 -4 -4 -4 -4 -3 -2 -2 -1 -1 -1 -1 -1 -0
-7 -7 -6 -6 -6 -6 -6 -6 -5 -5 -5 -5 -5 -5 -5 -4 -4 -4 -4 -4 -3 -3 -3 -3 -3 -4 -4 -4 -5 -5 -5 -6 -5 -4 -3 -3 -2 -2
-8 -8 -8 -8 -7 -7 -7 -6 -6 -6 -5 -5 -5 -5 -5 -5 -5 -5 -5 -4 -4 -4 -4 -4 -4 -4 -4 -4 -4 -4 -4 -4 -4 -4 -4 -4 -3 -3
-9 -9 -8 -8 -8 -8 -8 -8 -7 -7 -6 -6 -6 -6 -6 -6 -6 -5 -5 -5 -5 -5 -5 -5 -5 -5 -5 -5 -5 -4 -4 -4 -4 -4 -4 -4 -4 -3
-10 -10 -11 -10 -10 -10 -9 -9 -8 -8 -9 -9 -8 -8 -7 -7 -7 -7 -7 -7 -7 -7 -7 -7 -7 -7 -7 -6 -6 -6 -5 -5 -5 -5 -5 -5 -5 -5
-11 -11 -11 -11 -11 -11 -11 -11 -10 -11 -10 -10 -10 -10 -10 -10 -10 -10 -9 -9 -9 -10 -9 -9 -9 -9 -9 -9 -9 -8 -8 -8 -7 -7 -7 -7 -7 -7
-13 -13 -13 -13 -13 -12 -12 -13 -12 -13 -13 -13 -13 -13 -13 -13 -13 -13 -13 -13 -13 -12 -12 -12 -12 -12 -11 -11 -12 -12 -11 -11 -10 -10 -10 -10 -10 -9
-15 -15 -15 -15 -15 -15 -15 -15 -15 -15 -15 -15 -15 -15 -15 -15 -15 -15 -15 -15 -15 -15 -15 -15 -15 -14 -14 -14 -13 -14 -15 -14 -14 -13 -13 -13 -12 -13
-16 -16 -16 -17 -17 -17 -17 -17 -17 -17 -17 -17 -17 -17 -17 -17 -17 -17 -17 -17 -17 -17 -17 -17 -17 -18 -17 -17 -17 -16 -16 -16 -16 -16 -15 -15 -15 -14
-17 -17 -17 -18 -18 -18 -18 -19 -19 -19 -19 -19 -19 -19 -19 -19 -19 -19 -19 -18 -18 -19 -19 -19 -19 -19 -19 -19 -19 -18 -18 -18 -18 -17 -17 -17 -17 -16
-18 -18 -19 -19 -19 -19 -20 -20 -21 -21 -22 -21 -21 -21 -21 -21 -21 -21 -21 -20 -20 -20 -20 -20 -20 -21 -20 -20 -20 -20 -20 -20 -20 -19 -19 -18 -18 -19

GFSNE_700_temp_150.txt.gz
Temp
-2 -1 -1 -1 -1 -1 -0 1 1 1 2 2 2 2 2 2 2 2 3 3 4 4 3 4 4 4 4 4 3 3 3 3 3 3 3 3 3 3
-5 -5 -4 -3 -2 -2 -1 -0 0 1 1 1 1 1 2 2 4 3 3 3 4 4 3 3 4 4 4 4 4 4 4 3 3 3 3 3 3 3
-6 -5 -5 -3 -3 -2 -1 -1 -0 -0 0 1 1 2 3 2 2 2 2 3 4 4 3 3 4 4 4 4 4 4 4 4 3 3 3 3 3 3
-5 -4 -3 -2 -3 -2 -1 -1 -1 -1 -1 1 1 1 1 2 3 2 3 3 3 4 3 3 3 3 3 3 3 3 3 3 3 3 3 2 2 2
-5 -4 -3 -3 -2 -1 -1 -2 -2 -2 -1 -0 0 0 1 1 1 2 3 3 2 2 3 2 2 2 2 3 3 2 2 3 2 3 3 3 2 2
-5 -4 -4 -3 -3 -2 -3 -2 -2 -1 -1 -0 0 0 1 -0 1 1 1 0 1 3 2 2 2 2 2 2 2 2 2 2 2 3 3 3 2 2
-5 -5 -4 -4 -4 -3 -2 -2 -2 -1 -1 -1 -0 0 -0 -0 -1 1 0 -0 -0 -1 2 2 2 2 2 2 3 3 2 2 2 2 2 2 2 2
-7 -6 -6 -5 -3 -2 -2 -2 -2 -1 -1 -1 -1 -1 -1 -0 -2 -1 0 -0 -0 0 2 0 1 1 2 2 1 2 2 2 2 1 2 2 2 2
-6 -6 -6 -6 -6 -5 -5 -5 -2 -1 -1 -1 -1 -1 -2 -1 -2 -1 -1 -0 -0 -0 -1 0 0 0 1 1 1 1 1 1 1 2 2 1 1 1
-6 -6 -6 -5 -5 -6 -6 -6 -6 -6 -5 -4 -4 -3 -3 -3 -2 -2 -1 -0 -1 -0 -1 -1 1 2 -0 -0 0 1 1 1 1 1 1 1 1 1
-6 -6 -6 -6 -6 -6 -5 -5 -5 -6 -6 -6 -5 -5 -5 -5 -5 -2 -2 -2 -1 -2 -1 -1 -1 -0 -1 -1 0 1 1 1 0 -0 1 1 1 1
-7 -7 -7 -7 -6 -6 -6 -6 -5 -5 -5 -5 -5 -6 -6 -6 -6 -5 -5 -4 -3 -3 -3 -2 -2 -2 -2 -1 -1 -1 -1 -1 -0 -0 -0 0 0 0
-7 -7 -7 -7 -7 -6 -6 -7 -6 -6 -6 -5 -5 -5 -5 -5 -5 -5 -4 -3 -3 -4 -4 -4 -4 -4 -4 -3 -3 -3 -3 -2 -2 -2 -1 -1 -1 -1
-8 -8 -7 -7 -7 -7 -7 -7 -7 -6 -6 -6 -6 -6 -5 -5 -5 -5 -4 -4 -4 -4 -4 -3 -4 -4 -3 -3 -2 -3 -2 -3 -3 -3 -4 -3 -3 -2
-9 -9 -9 -8 -8 -8 -8 -8 -8 -8 -8 -8 -7 -7 -6 -6 -6 -5 -5 -4 -4 -4 -4 -4 -5 -4 -3 -3 -4 -4 -4 -4 -3 -3 -3 -4 -5 -4
-10 -10 -9 -9 -10 -9 -9 -9 -9 -8 -8 -8 -8 -8 -7 -7 -7 -7 -7 -7 -6 -6 -6 -5 -5 -5 -5 -4 -5 -5 -4 -4 -4 -4 -4 -4 -4 -4
-11 -11 -11 -10 -10 -10 -11 -11 -11 -10 -10 -10 -9 -9 -9 -9 -9 -9 -8 -8 -8 -8 -8 -8 -7 -7 -6 -6 -6 -5 -5 -5 -5 -5 -5 -5 -5 -5
-12 -12 -12 -11 -11 -11 -11 -11 -11 -11 -11 -11 -11 -11 -11 -10 -10 -10 -10 -10 -10 -10 -10 -9 -9 -9 -9 -9 -9 -8 -7 -7 -6 -7 -6 -6 -6 -7
-13 -13 -13 -13 -13 -13 -13 -13 -13 -12 -12 -12 -13 -13 -13 -13 -13 -13 -13 -12 -12 -12 -12 -12 -11 -10 -10 -10 -11 -11 -10 -10 -9 -9 -9 -9 -9 -9
-15 -15 -15 -15 -15 -15 -15 -15 -14 -14 -14 -14 -14 -14 -14 -14 -14 -14 -14 -14 -14 -14 -14 -14 -14 -13 -12 -12 -11 -13 -13 -13 -12 -12 -12 -12 -12 -12
-16 -16 -16 -16 -17 -17 -17 -17 -17 -17 -16 -16 -16 -16 -17 -16 -16 -16 -16 -16 -16 -16 -16 -16 -16 -16 -16 -16 -16 -15 -15 -16 -16 -15 -15 -14 -15 -15
-17 -17 -17 -17 -18 -18 -18 -18 -19 -19 -19 -19 -18 -18 -19 -19 -18 -18 -18 -18 -18 -18 -18 -18 -18 -18 -18 -18 -17 -17 -17 -17 -17 -17 -17 -17 -17 -17
-18 -18 -18 -19 -19 -19 -19 -20 -20 -20 -21 -21 -20 -21 -21 -21 -21 -21 -21 -20 -20 -20 -20 -20 -20 -20 -19 -20 -19 -19 -19 -19 -19 -19 -19 -18 -19 -19

GFSNE_700_temp_153.txt.gz
Temp
-3 -4 -4 -2 -2 -1 -0 0 -1 -1 0 1 2 2 2 2 3 2 2 3 2 2 3 3 3 3 3 4 4 3 3 3 3 3 2 2 2 2
-5 -7 -5 -5 -3 -2 -2 -0 -1 -1 -0 0 0 1 1 1 2 2 2 2 1 1 2 2 3 3 3 4 4 3 3 3 3 3 3 3 2 2
-7 -6 -5 -5 -5 -3 -3 -3 -2 -2 -0 -1 -0 -0 0 0 0 1 1 1 1 1 1 2 2 2 3 3 3 3 3 3 3 3 3 3 2 3
-5 -6 -6 -5 -5 -4 -3 -3 -3 -3 -1 -2 -1 -1 -0 0 1 1 1 2 2 3 2 2 2 2 2 3 3 3 3 3 3 3 3 3 3 2
-6 -6 -5 -5 -4 -3 -3 -4 -3 -2 -2 -1 -1 -1 -1 -0 0 1 0 1 1 1 1 2 3 2 2 2 2 2 2 2 2 2 3 2 2 2
-7 -6 -5 -5 -4 -4 -3 -3 -3 -2 -2 -2 -1 -1 -1 -1 -0 -0 0 1 -0 0 0 1 2 2 3 2 2 2 2 2 2 2 2 2 2 2
-8 -7 -7 -6 -6 -5 -5 -5 -3 -3 -3 -2 -2 -2 -1 -1 -0 -1 -0 0 0 0 -0 0 0 0 1 2 2 2 2 2 2 2 2 2 2 2
-7 -8 -8 -7 -7 -6 -5 -5 -3 -4 -2 -2 -2 -1 -1 -1 -1 -0 -1 -1 0 1 -1 -1 1 1 1 1 3 2 2 2 2 2 2 2 2 2
-7 -7 -7 -7 -8 -7 -7 -6 -5 -3 -2 -2 -1 -1 -1 -1 -1 -1 -2 -2 -2 -1 -1 -1 1 0 0 -0 2 1 1 1 1 1 2 2 2 2
-7 -6 -6 -7 -6 -7 -6 -7 -7 -7 -6 -5 -4 -4 -3 -3 -4 -3 -3 -2 -2 -1 -1 -1 -1 -1 -1 -1 -0 2 1 0 0 1 1 1 1 1
-8 -7 -7 -7 -7 -7 -7 -6 -6 -6 -7 -7 -6 -6 -6 -6 -6 -5 -4 -3 -3 -2 -2 -1 -1 -1 -2 -2 -0 1 1 0 0 -0 1 1 0 1
-8 -8 -8 -7 -7 -7 -7 -7 -7 -6 -6 -6 -6 -6 -5 -6 -6 -6 -6 -5 -5 -4 -4 -4 -3 -2 -3 -1 -2 -2 -0 -1 -0 -1 -0 0 -0 0
-9 -8 -8 -8 -8 -8 -8 -8 -7 -7 -7 -7 -6 -6 -6 -6 -5 -5 -5 -6 -6 -5 -5 -5 -5 -4 -4 -4 -3 -3 -3 -2 -2 -1 -1 -1 -1 -1
-9 -9 -9 -9 -8 -8 -8 -7 -7 -8 -8 -7 -7 -7 -7 -7 -6 -6 -6 -5 -5 -5 -5 -6 -6 -6 -5 -5 -5 -5 -4 -4 -3 -3 -4 -3 -2 -2
-11 -10 -10 -10 -10 -10 -9 -9 -9 -9 -8 -8 -8 -8 -8 -8 -7 -7 -7 -7 -7 -5 -5 -6 -5 -5 -5 -6 -5 -4 -4 -3 -4 -4 -4 -4 -4 -3
-11 -11 -11 -11 -11 -10 -10 -10 -10 -9 -9 -9 -9 -9 -8 -9 -9 -9 -9 -8 -8 -7 -7 -7 -7 -6 -6 -6 -6 -5 -5 -5 -4 -4 -4 -3 -3 -3
-12 -12 -12 -11 -12 -11 -11 -11 -11 -11 -11 -11 -10 -10 -10 -10 -10 -10 -10 -9 -10 -10 -9 -8 -8 -7 -7 -7 -7 -6 -6 -5 -5 -5 -5 -5 -5 -5
-13 -13 -13 -12 -12 -12 -12 -11 -12 -12 -12 -12 -12 -11 -11 -11 -11 -11 -11 -11 -11 -11 -11 -10 -10 -11 -10 -8 -8 -8 -7 -7 -6 -6 -6 -6 -7 -7
-14 -14 -14 -14 -14 -14 -14 -13 -13 -13 -13 -13 -13 -13 -13 -13 -12 -13 -13 -12 -13 -13 -12 -11 -11 -10 -11 -11 -12 -10 -9 -10 -9 -9 -9 -8 -8 -9
-15 -15 -15 -15 -15 -15 -15 -15 -15 -15 -14 -14 -15 -15 -14 -14 -15 -15 -14 -14 -14 -14 -14 -14 -13 -13 -12 -11 -11 -13 -13 -12 -11 -11 -11 -11 -11 -11
-16 -16 -16 -17 -17 -17 -17 -17 -17 -17 -16 -16 -16 -16 -17 -17 -17 -16 -16 -16 -16 -16 -16 -16 -15 -15 -14 -14 -13 -14 -15 -15 -13 -13 -13 -13 -14 -14
-17 -17 -18 -18 -18 -18 -18 -18 -19 -19 -18 -18 -18 -18 -19 -18 -18 -18 -18 -18 -18 -18 -17 -17 -17 -17 -17 -16 -16 -15 -16 -16 -17 -16 -16 -16 -16 -16
-18 -19 -19 -19 -19 -19 -19 -20 -20 -20 -20 -20 -20 -20 -20 -20 -20 -20 -20 -20 -20 -20 -19 -19 -19 -19 -19 -19 -19 -18 -18 -18 -18 -18 -18 -18 -18 -18

GFSNE_700_temp_159.txt.gz
Temp
-4 -4 -4 -4 -4 -5 -5 -3 -2 1 1 1 -0 -0 -0 -1 -1 1 2 2 2 2 2 2 1 2 2 3 2 2 2 3 3 2 2 3 3 2
-5 -5 -4 -4 -4 -4 -5 -5 -5 -2 0 1 -0 -1 -1 -0 0 0 1 1 2 2 2 2 2 1 2 2 2 2 2 2 3 3 2 2 3 2
-6 -6 -6 -5 -4 -4 -4 -4 -4 -5 -2 -1 -1 -1 -1 -1 -1 -0 0 1 2 2 2 2 2 1 1 2 2 2 2 2 2 2 2 2 2 2
-5 -6 -6 -6 -6 -5 -4 -4 -4 -4 -5 -4 -4 -2 -2 -2 -1 -1 0 -0 1 1 1 2 1 1 1 1 1 1 2 2 2 2 2 2 2 2
-5 -5 -5 -6 -6 -6 -6 -5 -5 -4 -4 -4 -5 -4 -3 -2 -1 -1 -1 -0 0 1 0 0 1 0 1 1 1 1 2 1 2 2 1 2 2 2
-5 -5 -6 -5 -5 -6 -7 -6 -5 -5 -5 -4 -4 -4 -4 -2 -2 -1 -1 -1 -1 0 0 1 0 -1 0 -1 -1 -0 -0 0 1 1 1 2 2 2
-6 -6 -6 -6 -6 -6 -6 -7 -7 -7 -6 -5 -4 -4 -4 -3 -2 -1 -1 -1 -1 -1 -1 0 0 -0 0 1 1 -0 -1 -1 -0 2 1 1 1 2
-7 -7 -7 -7 -7 -7 -6 -6 -7 -8 -8 -6 -5 -4 -3 -3 -4 -3 -2 -3 -2 -2 -1 -1 -0 -0 -0 -0 -1 -1 -0 0 1 0 1 1 1 1
-8 -8 -8 -7 -7 -7 -7 -6 -6 -7 -8 -8 -7 -5 -5 -4 -4 -3 -3 -2 -2 -2 -2 -2 -1 -1 -1 -1 -1 -1 -0 1 2 2 1 1 1 0
-8 -8 -8 -8 -8 -8 -8 -7 -7 -8 -8 -9 -9 -8 -7 -6 -5 -5 -5 -5 -5 -4 -3 -3 -2 -2 -1 -0 0 1 1 0 1 1 1 1 1 -0
-9 -9 -9 -9 -9 -9 -8 -8 -8 -8 -7 -8 -8 -9 -8 -8 -7 -6 -6 -6 -6 -5 -4 -4 -4 -4 -4 -3 -2 -1 -1 -0 -0 0 -0 -0 -1 -0
-10 -10 -10 -10 -10 -10 -10 -9 -9 -9 -8 -8 -8 -8 -9 -9 -9 -8 -8 -7 -7 -6 -6 -6 -5 -5 -5 -4 -4 -4 -4 -3 -2 -1 -1 -1 -1 -1
-11 -11 -11 -11 -10 -10 -10 -10 -10 -10 -10 -9 -9 -8 -9 -8 -8 -8 -8 -9 -8 -8 -8 -8 -7 -7 -7 -6 -5 -5 -5 -5 -5 -4 -3 -3 -2 -2
-12 -12 -12 -12 -11 -11 -11 -11 -11 -11 -11 -11 -10 -10 -10 -10 -9 -9 -9 -9 -8 -8 -8 -8 -8 -8 -8 -7 -7 -7 -7 -7 -6 -6 -6 -6 -6 -4
-12 -12 -12 -13 -13 -13 -13 -12 -12 -12 -12 -12 -11 -11 -11 -10 -9 -9 -9 -9 -9 -9 -9 -8 -8 -8 -7 -6 -6 -6 -7 -7 -8 -7 -6 -6 -7 -6
-13 -13 -13 -13 -13 -13 -13 -14 -13 -13 -13 -12 -12 -12 -11 -11 -11 -11 -10 -10 -10 -10 -10 -9 -9 -8 -8 -7 -7 -6 -7 -6 -6 -6 -6 -6 -7 -7
-14 -14 -14 -14 -14 -14 -14 -14 -14 -14 -14 -14 -14 -13 -13 -12 -12 -12 -12 -12 -12 -11 -11 -10 -10 -10 -9 -9 -8 -8 -7 -7 -7 -7 -7 -7 -5 -6
-15 -15 -15 -15 -15 -15 -14 -14 -14 -14 -15 -15 -15 -14 -14 -14 -14 -13 -13 -13 -13 -12 -12 -12 -13 -12 -11 -10 -10 -10 -9 -9 -9 -8 -8 -9 -7 -6
-15 -15 -15 -16 -16 -16 -15 -15 -15 -15 -15 -15 -15 -15 -15 -15 -15 -15 -15 -14 -14 -14 -13 -13 -13 -13 -13 -13 -12 -11 -10 -10 -11 -10 -9 -9 -9 -9
-16 -16 -17 -17 -17 -17 -17 -17 -17 -17 -17 -17 -16 -16 -17 -17 -16 -16 -16 -16 -15 -15 -15 -15 -14 -14 -13 -13 -13 -14 -13 -12 -12 -11 -11 -11 -10 -10
-17 -17 -17 -17 -18 -18 -18 -18 -18 -18 -18 -19 -18 -18 -18 -18 -18 -18 -18 -17 -17 -17 -17 -16 -16 -16 -15 -15 -15 -14 -14 -13 -12 -12 -12 -12 -12 -12
-18 -18 -19 -19 -19 -19 -19 -20 -20 -20 -20 -20 -20 -20 -20 -20 -20 -19 -19 -19 -19 -19 -18 -18 -18 -18 -17 -17 -16 -16 -16 -16 -15 -14 -13 -13 -13 -14
-19 -20 -20 -20 -20 -21 -21 -21 -21 -21 -21 -21 -21 -21 -21 -21 -21 -21 -21 -21 -21 -20 -20 -20 -20 -19 -19 -18 -18 -17 -17 -16 -16 -17 -17 -15 -15 -15

GFSNE_700_temp_162.txt.gz
Temp
-5 -5 -5 -5 -5 -4 -4 -4 -2 -0 0 -1 -1 -2 -1 -0 -0 0 1 2 2 2 2 2 2 3 2 1 1 2 1 2 2 2 2 3 2 2
-5 -5 -5 -5 -5 -5 -4 -4 -4 -3 -1 -1 -2 -1 -2 -1 -1 -1 -2 1 2 2 2 2 2 1 2 1 1 2 1 2 2 2 2 2 2 2
-5 -5 -5 -6 -6 -6 -5 -5 -4 -3 -2 -2 -2 -2 -2 -2 -1 -1 -3 -3 -1 1 1 2 2 2 2 2 0 1 2 2 2 2 2 2 2 2
-6 -6 -6 -6 -6 -6 -6 -5 -5 -5 -3 -2 -3 -4 -3 -2 -1 -2 -2 -1 -1 -0 0 1 1 1 2 2 2 1 2 1 1 2 2 2 2 2
-6 -6 -6 -6 -6 -6 -6 -6 -6 -5 -5 -3 -3 -5 -5 -5 -3 -3 -3 -2 -1 -1 -0 -0 0 1 1 1 1 1 1 1 1 2 1 2 2 2
-7 -6 -6 -6 -6 -6 -6 -6 -6 -6 -6 -6 -6 -5 -5 -5 -5 -3 -3 -2 -1 -1 -0 -1 -0 0 1 1 1 1 0 0 0 0 1 1 1 2
-7 -7 -7 -7 -6 -6 -6 -6 -6 -6 -6 -7 -7 -6 -5 -4 -4 -4 -3 -2 -2 -1 -1 -1 -0 -0 0 0 0 -0 0 0 0 1 1 0 1 0
-8 -8 -8 -8 -7 -7 -7 -6 -6 -6 -6 -7 -8 -7 -7 -5 -5 -5 -3 -3 -3 -2 -1 -2 -1 -1 -1 -1 -0 -0 -0 0 -1 1 1 -0 1 1
-9 -9 -9 -8 -8 -8 -8 -7 -7 -7 -7 -7 -7 -8 -8 -7 -7 -5 -4 -4 -3 -3 -2 -3 -2 -1 -1 -0 -1 -1 -1 -1 -1 -1 -0 -0 0 -1
-9 -9 -9 -9 -9 -9 -8 -8 -8 -8 -8 -8 -8 -8 -9 -9 -8 -8 -7 -6 -5 -4 -4 -3 -3 -3 -2 -2 -1 -2 -1 -1 -1 -1 -1 -0 0 -1
-10 -10 -10 -10 -10 -10 -10 -9 -9 -8 -9 -8 -8 -9 -9 -10 -9 -10 -10 -9 -8 -6 -5 -5 -4 -4 -3 -3 -3 -2 -2 -2 -1 -0 -1 0 0 0
-11 -11 -11 -11 -11 -11 -11 -10 -10 -10 -10 -10 -10 -10 -10 -10 -9 -10 -11 -10 -10 -9 -8 -7 -6 -5 -5 -5 -5 -5 -5 -3 -2 -2 -2 -1 -1 0
-12 -12 -12 -11 -11 -11 -11 -11 -11 -11 -10 -10 -10 -10 -10 -10 -10 -9 -9 -9 -10 -10 -9 -8 -7 -7 -6 -6 -6 -6 -6 -5 -5 -4 -3 -3 -2 -1
-12 -12 -12 -12 -12 -12 -12 -12 -12 -12 -12 -12 -12 -12 -11 -11 -11 -10 -10 -10 -9 -9 -9 -9 -9 -8 -8 -8 -8 -7 -7 -7 -7 -6 -6 -5 -4 -3
-13 -13 -13 -13 -13 -13 -13 -13 -13 -13 -13 -13 -12 -12 -12 -11 -11 -11 -11 -11 -10 -10 -10 -9 -9 -9 -9 -8 -8 -8 -8 -7 -7 -7 -8 -7 -7 -7
-14 -14 -14 -14 -14 -14 -14 -14 -14 -14 -14 -13 -13 -13 -12 -13 -13 -12 -12 -12 -11 -11 -11 -11 -10 -10 -9 -9 -9 -8 -8 -8 -7 -7 -6 -7 -7 -7
-14 -15 -15 -15 -15 -15 -15 -15 -15 -15 -15 -15 -15 -14 -14 -13 -13 -13 -13 -13 -13 -13 -12 -11 -11 -11 -10 -10 -10 -10 -9 -9 -8 -8 -7 -7 -7 -7
-15 -15 -15 -15 -15 -15 -15 -15 -16 -16 -16 -16 -16 -16 -15 -15 -15 -15 -14 -14 -14 -14 -14 -14 -13 -12 -12 -12 -11 -11 -11 -11 -10 -9 -9 -8 -7 -7
-16 -16 -16 -16 -16 -16 -16 -16 -16 -16 -16 -16 -16 -16 -16 -16 -16 -16 -16 -16 -16 -15 -15 -15 -15 -15 -14 -14 -12 -12 -12 -12 -11 -11 -10 -10 -10 -8
-17 -17 -17 -17 -17 -17 -17 -18 -18 -18 -18 -18 -18 -17 -17 -17 -17 -17 -17 -17 -17 -17 -16 -16 -15 -15 -14 -14 -14 -15 -13 -13 -13 -13 -12 -12 -11 -11
-18 -18 -18 -18 -18 -18 -19 -19 -19 -19 -19 -19 -19 -19 -19 -19 -19 -18 -18 -18 -18 -18 -18 -17 -17 -17 -16 -16 -16 -15 -15 -14 -14 -13 -13 -13 -13 -13
-19 -19 -19 -19 -19 -20 -20 -20 -20 -20 -20 -21 -20 -20 -20 -20 -20 -20 -20 -20 -20 -19 -19 -19 -19 -18 -18 -18 -17 -17 -17 -17 -16 -15 -14 -14 -14 -14
-19 -20 -20 -20 -20 -21 -21 -21 -22 -22 -22 -22 -22 -22 -22 -22 -22 -22 -22 -22 -21 -21 -21 -21 -21 -20 -20 -20 -19 -18 -18 -17 -17 -18 -18 -16 -15 -15

GFSNE_700_temp_165.txt.gz
Temp
-5 -5 -5 -5 -5 -5 -5 -4 -3 -2 -1 -2 -1 -2 -1 0 1 1 2 2 2 2 2 2 2 2 2 2 2 2 2 1 2 3 2 3 3 2
-6 -6 -5 -6 -6 -6 -6 -5 -5 -4 -3 -2 -2 -2 -2 -1 0 1 1 2 2 1 1 1 2 2 2 2 2 1 1 1 1 2 2 2 2 2
-6 -6 -6 -6 -6 -6 -6 -6 -5 -5 -4 -4 -3 -2 -2 -2 -2 -0 0 0 1 1 0 1 1 2 1 2 1 2 2 1 1 1 1 2 2 2
-7 -7 -7 -6 -6 -6 -6 -6 -6 -5 -5 -4 -4 -3 -3 -3 -3 -3 -2 -1 -0 -1 -1 -1 0 1 1 1 1 1 2 1 1 1 2 2 2 2
-7 -7 -7 -7 -7 -7 -6 -6 -6 -6 -6 -5 -4 -4 -6 -6 -5 -5 -4 -4 -3 -2 -1 -1 -1 -0 0 1 1 1 1 1 1 1 1 1 1 2
-7 -7 -7 -7 -7 -7 -7 -7 -7 -7 -7 -7 -6 -5 -5 -5 -5 -5 -5 -4 -4 -3 -1 -1 -1 -1 -0 0 0 0 1 1 1 1 1 1 1 2
-8 -8 -7 -7 -7 -7 -7 -7 -7 -7 -7 -7 -7 -7 -6 -6 -6 -5 -5 -4 -4 -3 -3 -2 -2 -1 -0 -1 -0 -0 1 1 1 1 1 1 1 1
-9 -9 -8 -8 -8 -8 -8 -8 -7 -7 -7 -7 -7 -7 -7 -6 -6 -6 -5 -5 -4 -4 -3 -3 -2 -2 -1 -0 -0 0 0 0 0 1 1 -0 0 0
-9 -9 -9 -9 -9 -9 -9 -9 -8 -8 -8 -8 -8 -8 -7 -8 -8 -8 -7 -7 -6 -5 -4 -3 -2 -3 -2 -2 -0 -1 -1 0 -0 0 0 -1 -0 0
-10 -10 -10 -10 -10 -10 -10 -10 -10 -9 -10 -9 -9 -8 -8 -8 -8 -9 -9 -9 -8 -7 -7 -6 -4 -3 -3 -2 -1 -1 -0 -0 -1 -1 -1 0 -1 -1
-11 -11 -11 -11 -11 -11 -11 -11 -10 -10 -10 -10 -10 -9 -9 -9 -9 -9 -10 -10 -10 -10 -9 -8 -7 -6 -4 -3 -2 -2 -2 -2 -1 -1 -1 -1 -1 -1
-11 -11 -11 -12 -11 -11 -12 -11 -11 -11 -11 -11 -11 -11 -11 -10 -10 -11 -11 -10 -10 -10 -10 -10 -9 -8 -7 -6 -5 -4 -4 -3 -4 -2 -1 -1 -2 -2
-12 -12 -12 -12 -12 -12 -12 -12 -12 -12 -11 -12 -12 -12 -12 -11 -11 -11 -11 -10 -11 -11 -11 -10 -10 -9 -8 -8 -7 -7 -6 -5 -4 -5 -3 -3 -3 -3
-13 -13 -13 -13 -13 -13 -13 -13 -13 -13 -12 -13 -13 -13 -13 -12 -12 -11 -11 -11 -11 -10 -10 -10 -10 -11 -10 -9 -9 -8 -8 -7 -6 -5 -5 -5 -4 -3
-13 -13 -14 -14 -14 -14 -14 -14 -14 -14 -14 -13 -13 -13 -13 -13 -12 -12 -11 -12 -12 -11 -11 -11 -10 -10 -10 -10 -9 -9 -8 -9 -8 -7 -7 -6 -5 -5
-14 -14 -14 -14 -14 -14 -14 -15 -14 -14 -14 -14 -14 -14 -13 -14 -14 -14 -13 -13 -12 -12 -12 -12 -11 -11 -11 -10 -9 -9 -9 -9 -10 -9 -8 -8 -7 -7
-15 -15 -15 -15 -15 -15 -15 -15 -15 -16 -15 -15 -15 -15 -15 -15 -15 -15 -15 -14 -14 -13 -13 -12 -12 -12 -11 -11 -10 -10 -9 -9 -9 -9 -9 -8 -8 -8
-15 -15 -15 -16 -16 -16 -16 -16 -16 -16 -16 -16 -16 -16 -16 -16 -16 -15 -15 -15 -15 -15 -14 -14 -13 -13 -12 -12 -12 -11 -11 -11 -10 -9 -9 -9 -8 -9
-16 -16 -16 -16 -17 -17 -17 -17 -17 -17 -17 -17 -17 -17 -17 -17 -17 -17 -17 -16 -16 -16 -16 -15 -15 -15 -15 -14 -13 -12 -12 -12 -12 -11 -11 -10 -10 -10
-17 -17 -17 -17 -18 -18 -18 -18 -18 -19 -19 -19 -19 -19 -19 -19 -18 -18 -18 -18 -18 -18 -17 -17 -16 -16 -16 -15 -15 -15 -14 -14 -13 -13 -12 -12 -11 -11
-17 -18 -18 -18 -19 -19 -19 -19 -20 -20 -20 -20 -20 -20 -20 -20 -20 -20 -19 -19 -19 -19 -19 -18 -18 -18 -17 -17 -17 -17 -16 -15 -14 -13 -14 -13 -13 -13
-19 -19 -19 -19 -20 -20 -20 -20 -21 -21 -21 -21 -21 -21 -21 -21 -21 -21 -21 -21 -20 -20 -20 -20 -19 -19 -19 -18 -18 -18 -17 -17 -17 -16 -15 -14 -14 -15
-19 -20 -20 -20 -21 -21 -21 -22 -22 -22 -22 -22 -22 -22 -22 -22 -22 -22 -22 -22 -22 -22 -21 -21 -21 -21 -20 -20 -19 -19 -19 -18 -18 -18 -18 -17 -16 -16

GFSNE_700_temp_168.txt.gz
Temp
-6 -6 -5 -5 -5 -5 -5 -4 -4 -3 -4 -3 -3 -3 -3 -2 -1 -0 1 1 1 2 2 2 1 1 2 3 2 2 2 2 1 1 2 3 3 2
-6 -6 -6 -6 -6 -6 -6 -5 -5 -4 -5 -4 -3 -3 -3 -2 -2 -1 -0 0 1 1 1 1 1 1 1 2 1 2 3 2 1 1 1 2 2 2
-7 -7 -7 -7 -7 -6 -6 -6 -5 -5 -4 -5 -5 -4 -3 -3 -3 -2 -2 -1 -0 0 0 0 1 1 1 1 1 1 2 1 2 3 2 3 3 3
-7 -7 -7 -7 -7 -7 -7 -6 -6 -5 -5 -5 -5 -5 -5 -4 -4 -4 -3 -2 -2 -1 -1 -2 -1 1 0 1 1 1 1 1 2 2 1 1 2 3
-7 -7 -7 -7 -7 -7 -7 -7 -7 -6 -6 -5 -5 -5 -5 -5 -5 -5 -5 -5 -4 -3 -2 -2 -3 -2 -0 0 1 1 1 1 2 2 1 1 1 1
-8 -8 -8 -8 -7 -7 -7 -7 -7 -7 -7 -6 -6 -6 -6 -5 -5 -5 -5 -5 -5 -5 -3 -3 -2 -2 -2 -1 -0 0 0 1 1 2 2 1 0 1
-8 -8 -8 -8 -8 -8 -8 -8 -8 -8 -7 -7 -7 -7 -7 -6 -6 -6 -6 -6 -5 -5 -4 -3 -3 -2 -2 -1 -1 -0 -0 1 1 1 1 1 0 0
-9 -9 -9 -9 -9 -8 -8 -8 -8 -8 -8 -8 -8 -8 -8 -7 -7 -7 -7 -7 -6 -6 -5 -4 -4 -3 -3 -2 -1 -1 -0 0 -0 0 1 1 1 0
-10 -10 -10 -10 -9 -9 -9 -9 -9 -9 -9 -9 -9 -9 -8 -8 -8 -8 -8 -9 -8 -8 -7 -6 -5 -5 -4 -3 -2 -2 -1 -1 -1 -0 -0 -0 -0 0
-11 -11 -11 -10 -10 -10 -10 -10 -10 -10 -10 -10 -10 -9 -9 -9 -9 -9 -9 -9 -10 -9 -9 -9 -8 -7 -6 -4 -3 -2 -2 -1 -1 -1 -0 0 -0 0
-11 -11 -11 -11 -11 -11 -11 -11 -11 -11 -11 -11 -10 -10 -10 -10 -10 -10 -10 -9 -10 -10 -10 -10 -10 -9 -8 -7 -6 -5 -4 -3 -1 -1 -1 -0 -1 -1
-12 -12 -12 -12 -12 -12 -12 -12 -12 -12 -11 -11 -11 -11 -11 -11 -11 -11 -11 -11 -10 -10 -11 -11 -10 -10 -9 -9 -8 -7 -6 -5 -3 -4 -1 -1 -1 -1
-12 -12 -12 -12 -12 -12 -12 -12 -12 -12 -12 -12 -12 -12 -12 -12 -12 -12 -12 -11 -11 -11 -11 -11 -11 -11 -10 -10 -9 -9 -8 -8 -6 -5 -5 -4 -2 -2
-13 -13 -13 -13 -13 -13 -13 -13 -13 -13 -13 -13 -13 -13 -13 -13 -13 -13 -12 -12 -12 -12 -12 -11 -12 -13 -13 -11 -10 -9 -9 -8 -8 -8 -7 -6 -4 -4
-13 -13 -13 -13 -13 -13 -13 -13 -13 -14 -14 -14 -14 -14 -14 -13 -13 -13 -13 -13 -13 -12 -12 -12 -12 -12 -12 -12 -13 -12 -12 -11 -9 -9 -8 -7 -6 -6
-14 -14 -14 -14 -14 -14 -14 -14 -14 -15 -15 -15 -15 -15 -15 -15 -15 -14 -14 -14 -14 -13 -13 -13 -13 -12 -12 -12 -12 -12 -11 -11 -11 -10 -10 -10 -9 -9
-14 -14 -14 -14 -15 -15 -15 -15 -15 -16 -16 -16 -16 -16 -16 -16 -16 -16 -15 -15 -15 -15 -14 -14 -13 -13 -13 -12 -12 -12 -12 -11 -11 -10 -10 -10 -10 -10
-15 -15 -15 -15 -16 -16 -16 -17 -17 -17 -17 -17 -17 -17 -17 -17 -17 -17 -17 -16 -16 -16 -15 -15 -15 -14 -13 -13 -13 -13 -12 -12 -12 -12 -11 -11 -11 -10
-15 -16 -16 -16 -17 -17 -17 -17 -18 -18 -18 -18 -18 -18 -18 -18 -18 -18 -18 -18 -18 -17 -16 -16 -16 -16 -15 -15 -14 -13 -13 -13 -12 -12 -12 -12 -12 -11
-16 -16 -17 -17 -18 -18 -18 -18 -19 -19 -19 -19 -19 -20 -20 -20 -19 -19 -19 -19 -19 -19 -18 -18 -17 -17 -17 -16 -16 -15 -15 -14 -14 -14 -13 -13 -12 -12
-17 -17 -18 -18 -18 -19 -19 -20 -20 -20 -20 -20 -20 -21 -21 -21 -21 -20 -20 -20 -20 -20 -20 -19 -19 -19 -18 -18 -18 -17 -17 -16 -15 -14 -15 -14 -14 -13
-18 -18 -18 -19 -19 -20 -20 -20 -21 -21 -21 -21 -21 -21 -21 -21 -21 -21 -21 -21 -21 -21 -21 -20 -20 -20 -20 -19 -19 -19 -18 -18 -18 -17 -15 -15 -15 -15
-18 -19 -19 -20 -20 -21 -21 -21 -21 -22 -22 -22 -22 -22 -22 -22 -22 -22 -22 -22 -22 -22 -22 -22 -21 -21 -21 -21 -20 -19 -19 -19 -19 -19 -19 -17 -16 -16